sat.trackr.live / text

‹ back to catalog

STARLINK-4734

NORAD 53790 · 2022-111T

PAYLOAD ACTIVE UNKNOWN

§ Identity

Operator
Country
US
Launch date
2022-09-11
Launch site
AFETR
Launch vehicle
Mass (kg)
RCS (m²)

Purposes: comms

External: N2YO · Heavens-Above · Gunter

§ Orbital elements

Epoch: 2026-05-25T02:28:04.297728Z

Period
95.44 min
Inclination
53.2125°
Eccentricity
0.0001837
Mean motion
15.08818244 rev/d
Perigee alt
538.5 km
Apogee alt
541.1 km
Semi-major
6,917.9 km
B*
3.6572e-4
RAAN
290.9654°
Arg perigee
86.1641°
Mean anomaly
273.9561°
Rev number
20,523

§ Raw data

STARLINK-47341 53790U 22111T   26145.10282752  .00005534  00000+0  36572-3 0  99982 53790  53.2125 290.9654 0001837  86.1641 273.9561 15.08818244205230

JSON: /api/v1/satellites/53790 · /tle

For live sub-satellite position, see the globe view (requires WebGL).

§ Visibility from observer

Set your observer location to see the next 7 days of passes ≥ 10°. The values pass through the URL so the page stays shareable.

No JS? Fill the form by hand. The geolocation button needs JavaScript.